DMSP 5D-2 F13 DEB, 40418

Orbit data source: Space-Track

DMSP 5D-2 F13 DEB, 40418 is space debris in SSO originally from a launch on Fri, 24 Mar 1995 UTC launched from the Air Force Western Test Range (AFWTR). Debris objects in space refer to the collection of defunct objects orbiting the Earth. Examples of debris include non-operational satellites, rocket bodies, and fragments generated from explosions, collisions, or faulty payload assembly.

Loading next visibility...
Identifier
40418, 1995-015AF
Orbit
SSO
Country
Flag of USUS
Related business
Manufacturer
Unknown
Mission
Spacecraft
Bus & Motor
Unknown
Mass
Unknown
Launch date (UTC)
1995-03-24 (30 years ago)
Launch vehicle
Unknown
Launch site
Air Force Western Test Range (AFWTR)
Object type
Payload
Rocket body
Debris
Shape & HBR
Unknown
Radar Cross Section
Small (<0.1 m²)

Expand to show TLE details & history
Last TLE update: 1 day ago

TLE from 1 day ago
0 DMSP 5D-2 F13 DEB
1 40418U 95015AF  25242.04460833  .00003388  00000-0  12911-2 0  9998
2 40418  98.6752 266.9561 0009418 109.2037 251.0166 14.31496492545553
Epoch: 2025-08-30T01:04Z
TLE epoch observation values (Epoch: 2025-08-30T01:04:14.159Z)
Latitude
-0.00002°
Longitude
-87.58745°
Altitude
791.865 km
Speed
7.457 km/s
True Right ascension
17h 47m 49s
True Declination
0° 00' 00"
Sunlit
Object was in daylight at epoch
Visualization orbit readout
Latitude
Unknown
Longitude
Unknown
Altitude
Unknown
Speed
Unknown
Apparent Right ascension
Unknown
Apparent Declination
Unknown
Sunlit
N/A
Visualization observer readout
Local Sidereal Time
16:40:12
Azimuth
Unknown
Elevation
Unknown
Doppler factor
Unknown
Orbital elements
Apogee altitude
790.62 km
Perigee altitude
777.129 km
Semi-major axis
7,162.012 km
Eccentricity
0.00094
Inclination
98.6752°
RAAN
266.9561°
Arg. of periapsis
109.2037°
True anomaly
250.91459°
Mean anomaly
251.0166°
Eccentric anomaly
250.96559°
Mean motion
3.58089 °/min
Orbital period
100.53 mins
BSTAR
0.0012911
Loading maneuver chart data...
Computing Atmospheric mass density...

Documentation

Showing up to 5 results
|